Location: Escondido Hill
(38.9119°N, 104.7815°W)
Time: 18:31:55
(UTC-06:00)

Envisat - Visible Passes

Search period start: 24 April 2019 00:00
Search period end: 04 May 2019 00:00
Orbit: 764 x 766 km, 98.2° (Epoch: 24 April)

Date Brightness Start Highest point End Pass type
(mag) Time Alt. Az. Time Alt. Az. Time Alt. Az.
24 Apr 5.5 20:34:55 10° SW 20:38:50 22° W 20:42:46 10° NW visible
26 Apr 6.0 21:02:36 10° WSW 21:04:37 12° W 21:06:37 10° WNW visible
27 Apr 5.1 20:23:11 10° SSW 20:27:31 28° W 20:31:53 10° NW visible
29 Apr 5.8 20:50:13 10° SW 20:53:16 16° W 20:56:20 10° NW visible
30 Apr 4.7 20:11:36 10° SSW 20:16:14 36° W 20:20:54 10° NNW visible
02 May 5.6 20:38:13 10° SW 20:41:56 20° W 20:45:41 10° NW visible
